Find Kosmos-1361

NORAD ID: 13164 Int'l Des: 1982-040 Owner: GUKOS Country: SU operational
LEOCIRCULAR

Live-Position

3D-Globus wird geladen...

Über Kosmos-1361

Beschreibung wird geladen...

Nächste Überflüge

Passes for default location (London). Set your location on the main map for personalized predictions.

Höhenverlauf

Loading altitude history...

Zweizeiliger Elementsatz

1 13164U 82040E 26105.77553506 -.00000002 00000-0 92265-4 0 9992
2 13164 74.0082 108.1921 0015032 266.3944 263.9963 12.48210237 2331
Epoch: 15. Apr. 2026 • Age: 8 hours

Aktueller Status

Höhe 1483.3 km
Geschwindigkeit 7.12 km/s
Subsatellitenpunkt 37.11°N, 38.81°E
Startdatum 6. Mai 1982
Alter 43.9 years
Typ other

Technische Details

Klassifizierung Payload
Masse 60.00 kg
Trockenmasse 60.00 kg
Gesamtmasse 60.00 kg
Länge 0.80 m
Durchmesser 0.80 m
Spannweite 0.80 m
Form Poly
Hersteller NPOPM
Bus-Typ Strela-1 11F625
Phasenstatus In Orbit
Besitzer/Staat GUKOS/SU

Most Searched